| time (UTC) | temp F | wind direction | speed MPH | gust MPH | rain 1hr in | rain 24hr in | rain mn in | humidity % | barometer mb |
| 20260503184600 | 74 | 304 | 4.0 | 9.0 | 0.00 | 0.00 | 0.00 | 62 | 1009.9 |
| 20260503183044 | 75 | 267 | 4.0 | 10.0 | 0.00 | 0.00 | 0.00 | 61 | 1010.0 |
| 20260503181541 | 79 | 34 | 3.0 | 9.0 | 0.00 | 0.00 | 0.00 | 55 | 1010.0 |
| 20260503180040 | 79 | 355 | 2.0 | 7.0 | 0.00 | 0.00 | 0.00 | 60 | 1010.1 |
| 20260503174542 | 77 | 329 | 1.0 | 5.0 | 0.00 | 0.00 | 0.00 | 63 | 1010.2 |
| 20260503081544 | 51 | 163 | 0.0 | 2.0 | 0.00 | 0.00 | 0.00 | 96 | 1012.7 |
| 20260503071600 | 51 | 0 | 0.0 | 4.0 | 0.00 | 0.00 | 0.00 | 95 | 1013.0 |
| 20260503054555 | 52 | 346 | 0.0 | 3.0 | 0.00 | 0.00 | 0.00 | 94 | 1013.5 |
| 20260503053042 | 52 | 0 | 1.0 | 2.0 | 0.00 | 0.00 | 0.00 | 94 | 1013.7 |
| 20260503051536 | 53 | 0 | 0.0 | 2.0 | 0.00 | 0.00 | 0.00 | 94 | 1013.8 |
| 20260503050047 | 53 | 0 | 0.0 | 3.0 | 0.00 | 0.00 | 0.00 | 93 | 1013.6 |
| 20260503044550 | 53 | 0 | 0.0 | 3.0 | 0.00 | 0.00 | 0.00 | 93 | 1013.6 |
| 20260503043047 | 53 | 0 | 0.0 | 2.0 | 0.00 | 0.00 | 0.00 | 93 | 1013.6 |
| 20260503041543 | 53 | 348 | 0.0 | 4.0 | 0.00 | 0.00 | 0.00 | 92 | 1013.7 |
| 20260503040040 | 54 | 0 | 1.0 | 4.0 | 0.00 | 0.00 | 0.00 | 92 | 1013.5 |
| 20260503034536 | 54 | 347 | 1.0 | 3.0 | 0.00 | 0.00 | 0.00 | 91 | 1013.6 |
| 20260503033042 | 54 | 0 | 0.0 | 5.0 | 0.00 | 0.00 | 0.00 | 91 | 1013.5 |
| 20260503031543 | 55 | 348 | 1.0 | 3.0 | 0.00 | 0.00 | 0.00 | 90 | 1013.5 |
| 20260503030041 | 55 | 341 | 0.0 | 3.0 | 0.00 | 0.00 | 0.00 | 89 | 1013.3 |
| 20260503024541 | 56 | 293 | 1.0 | 5.0 | 0.00 | 0.00 | 0.00 | 88 | 1013.1 |
| 20260503023043 | 56 | 339 | 1.0 | 6.0 | 0.00 | 0.00 | 0.00 | 87 | 1012.8 |
| 20260503021551 | 56 | 270 | 2.0 | 5.0 | 0.00 | 0.00 | 0.00 | 87 | 1012.9 |
| 20260503020044 | 57 | 346 | 1.0 | 6.0 | 0.00 | 0.00 | 0.00 | 86 | 1013.0 |
| 20260503014542 | 57 | 9 | 2.0 | 5.0 | 0.00 | 0.00 | 0.00 | 85 | 1013.0 |
| 20260503013042 | 57 | 352 | 2.0 | 6.0 | 0.00 | 0.00 | 0.00 | 85 | 1013.1 |
| 20260503011548 | 57 | 302 | 2.0 | 7.0 | 0.00 | 0.00 | 0.00 | 85 | 1013.2 |
| 20260503010042 | 56 | 5 | 4.0 | 12.0 | 0.00 | 0.00 | 0.00 | 86 | 1013.0 |
| 20260503004600 | 56 | 321 | 4.0 | 11.0 | 0.00 | 0.00 | 0.00 | 85 | 1013.1 |
| 20260503003042 | 57 | 5 | 4.0 | 12.0 | 0.00 | 0.00 | 0.00 | 83 | 1013.0 |
| 20260503001541 | 59 | 45 | 5.0 | 11.0 | 0.00 | 0.00 | 0.00 | 81 | 1013.2 |
| 20260503000059 | 59 | 271 | 3.0 | 9.0 | 0.00 | 0.00 | 0.00 | 80 | 1013.3 |
| 20260502234543 | 60 | 321 | 4.0 | 13.0 | 0.00 | 0.00 | 0.00 | 79 | 1013.5 |
| 20260502233040 | 60 | 341 | 5.0 | 11.0 | 0.00 | 0.00 | 0.00 | 79 | 1013.6 |
| 20260502231536 | 60 | 355 | 5.0 | 12.0 | 0.00 | 0.00 | 0.00 | 79 | 1013.7 |
| 20260502230047 | 60 | 261 | 3.0 | 12.0 | 0.00 | 0.00 | 0.00 | 78 | 1013.9 |
| 20260502224541 | 60 | 281 | 4.0 | 12.0 | 0.00 | 0.00 | 0.00 | 77 | 1014.0 |
| 20260502223041 | 60 | 360 | 5.0 | 13.0 | 0.00 | 0.00 | 0.00 | 77 | 1014.1 |
| 20260502221609 | 60 | 308 | 6.0 | 14.0 | 0.00 | 0.00 | 0.00 | 77 | 1014.2 |
| 20260502220053 | 60 | 25 | 3.0 | 12.0 | 0.00 | 0.00 | 0.00 | 77 | 1014.4 |
| 20260502214543 | 60 | 269 | 7.0 | 13.0 | 0.00 | 0.00 | 0.00 | 78 | 1014.3 |
| 20260502213043 | 60 | 15 | 3.0 | 8.0 | 0.00 | 0.00 | 0.00 | 78 | 1014.4 |
| 20260502211542 | 59 | 15 | 4.0 | 10.0 | 0.00 | 0.00 | 0.00 | 79 | 1014.6 |
| 20260502210040 | 59 | 325 | 4.0 | 12.0 | 0.00 | 0.00 | 0.00 | 78 | 1014.7 |
| 20260502204542 | 59 | 268 | 4.0 | 11.0 | 0.00 | 0.00 | 0.00 | 79 | 1015.0 |
| 20260502203041 | 59 | 355 | 3.0 | 12.0 | 0.00 | 0.00 | 0.00 | 78 | 1015.1 |
| 20260502201545 | 60 | 340 | 3.0 | 10.0 | 0.00 | 0.00 | 0.00 | 77 | 1015.1 |
| 20260502200057 | 61 | 318 | 3.0 | 9.0 | 0.00 | 0.00 | 0.00 | 75 | 1015.1 |
| 20260502194543 | 61 | 334 | 3.0 | 10.0 | 0.00 | 0.00 | 0.00 | 76 | 1015.4 |
| 20260502193044 | 59 | 288 | 3.0 | 9.0 | 0.00 | 0.00 | 0.00 | 79 | 1015.5 |
| 20260502191545 | 57 | 314 | 3.0 | 8.0 | 0.00 | 0.00 | 0.00 | 80 | 1015.7 |
| 20260502190047 | 58 | 331 | 4.0 | 9.0 | 0.00 | 0.00 | 0.00 | 78 | 1015.7 |